Location: Härggis
(46.9540°N, 8.4897°E)
Time: 01:39:43
(UTC+00:00)

CZ-2D R/B - Pass Details

Date: 27 May 2022
Orbit: 791 x 845 km, 98.7° (Epoch: 26 June)

Event Time Altitude Azimuth Distance (km) Brightness Sun altitude
Rises 02:10:54 0° 6° (N) 3,381 6.4 -12.0°
Reaches altitude 10° 02:13:29 10° 357° (N) 2,435 5.3 -11.7°
Maximum altitude 02:18:11 32° 296° (WNW) 1,378 3.2 -11.2°
Enters shadow 02:22:14 13° 239° (WSW) 2,196 3.8 -10.7°
